Location: Menands
(42.6920°N, 73.7246°W)
Time: 17:41:29
(UTC+00:00)

CRYOSAT 2 - Pass Details

Date: 18 February 2026
Orbit: 718 x 721 km, 92.0° (Epoch: 13 March)

Event Time Altitude Azimuth Distance (km) Brightness Sun altitude
Rises 23:22:22 0° 7° (N) 3,138 7.5 -10.2°
Reaches altitude 10° 23:24:41 10° 9° (N) 2,213 6.7 -10.6°
Maximum altitude 23:29:34 70° 93° (E) 767 4.3 -11.5°
Drops below altitude 10° 23:34:24 10° 178° (S) 2,195 6.9 -12.4°
Sets 23:36:41 0° 180° (S) 3,111 7.7 -12.8°
